| time (UTC) | temp F | wind direction | speed MPH | gust MPH | rain 1hr in | rain 24hr in | rain mn in | humidity % | barometer mb |
| 20260903141530 | 84 | 0 | 0.0 | 0.0 | 0.00 | 0.00 | 0.00 | 35 | 981.8 |
| 20260903134530 | 85 | 0 | 0.0 | 2.0 | 0.00 | 0.00 | 0.00 | 37 | 982.0 |
| 20260903131530 | 85 | 0 | 0.0 | 2.0 | 0.00 | 0.00 | 0.00 | 37 | 982.2 |
| 20260903124529 | 85 | 29 | 0.0 | 5.0 | 0.00 | 0.00 | 0.00 | 37 | 982.4 |
| 20260903122932 | 86 | 0 | 0.0 | 5.0 | 0.00 | 0.00 | 0.00 | 39 | 982.5 |
| 20260903114528 | 85 | 10 | 0.0 | 9.0 | 0.00 | 0.00 | 0.00 | 42 | 982.7 |
| 20260903111528 | 84 | 348 | 1.0 | 9.0 | 0.00 | 0.00 | 0.00 | 44 | 982.9 |
| 20260903104530 | 83 | 34 | 0.0 | 8.0 | 0.00 | 0.00 | 0.00 | 45 | 983.2 |
| 20260903101527 | 82 | 0 | 0.0 | 4.0 | 0.00 | 0.00 | 0.00 | 47 | 983.5 |
| 20260903094523 | 80 | 9 | 0.0 | 4.0 | 0.00 | 0.00 | 0.00 | 50 | 983.5 |
| 20260903091523 | 78 | 0 | 0.0 | 0.0 | 0.00 | 0.00 | 0.00 | 53 | 983.6 |
| 20260903084527 | 76 | 0 | 0.0 | 0.0 | 0.00 | 0.00 | 0.00 | 57 | 983.6 |
| 20260903081519 | 73 | 0 | 0.0 | 2.0 | 0.00 | 0.00 | 0.00 | 62 | 983.6 |
| 20260903074520 | 70 | 0 | 0.0 | 1.0 | 0.00 | 0.00 | 0.00 | 68 | 983.4 |
| 20260903071519 | 64 | 294 | 0.0 | 0.0 | 0.00 | 0.00 | 0.00 | 80 | 983.2 |
| 20260903064518 | 61 | 294 | 0.0 | 2.0 | 0.00 | 0.00 | 0.00 | 81 | 983.3 |
| 20260903061519 | 59 | 0 | 0.0 | 0.0 | 0.00 | 0.00 | 0.00 | 85 | 983.1 |
| 20260903054519 | 58 | 0 | 0.0 | 1.0 | 0.00 | 0.00 | 0.00 | 84 | 982.8 |
| 20260903054307 | 58 | 0 | 0.0 | 0.0 | 0.00 | 0.00 | 0.00 | 84 | 982.4 |
| 20260903044518 | 58 | 0 | 0.0 | 0.0 | 0.00 | 0.00 | 0.00 | 82 | 982.3 |
| 20260903041515 | 58 | 0 | 0.0 | 0.0 | 0.00 | 0.00 | 0.00 | 82 | 982.2 |
| 20260903034516 | 59 | 0 | 0.0 | 0.0 | 0.00 | 0.00 | 0.00 | 82 | 982.3 |
| 20260903031516 | 59 | 0 | 0.0 | 0.0 | 0.00 | 0.00 | 0.00 | 81 | 982.2 |
| 20260903024512 | 60 | 0 | 0.0 | 0.0 | 0.00 | 0.00 | 0.00 | 81 | 982.1 |
| 20260903022900 | 60 | 19 | 0.0 | 0.0 | 0.00 | 0.00 | 0.00 | 80 | 982.1 |
| 20260903014506 | 61 | 19 | 0.0 | 0.0 | 0.00 | 0.00 | 0.00 | 80 | 982.0 |
| 20260903011504 | 61 | 19 | 0.0 | 0.0 | 0.00 | 0.00 | 0.00 | 79 | 982.0 |
| 20260903005852 | 62 | 0 | 0.0 | 0.0 | 0.00 | 0.00 | 0.00 | 78 | 982.0 |
| 20260903001504 | 62 | 0 | 0.0 | 0.0 | 0.00 | 0.00 | 0.00 | 77 | 982.1 |
| 20260902234510 | 63 | 23 | 0.0 | 0.0 | 0.00 | 0.00 | 0.00 | 77 | 982.2 |
| 20260902231505 | 64 | 22 | 0.0 | 0.0 | 0.00 | 0.00 | 0.00 | 75 | 982.2 |
| 20260902224504 | 65 | 23 | 0.0 | 0.0 | 0.00 | 0.00 | 0.00 | 73 | 982.1 |
| 20260902221504 | 66 | 0 | 0.0 | 0.0 | 0.00 | 0.00 | 0.00 | 71 | 981.8 |
| 20260902214504 | 67 | 0 | 0.0 | 0.0 | 0.00 | 0.00 | 0.00 | 69 | 981.7 |
| 20260902211502 | 68 | 24 | 0.0 | 0.0 | 0.00 | 0.00 | 0.00 | 68 | 981.5 |
| 20260902205902 | 69 | 19 | 0.0 | 0.0 | 0.00 | 0.00 | 0.00 | 66 | 981.5 |
| 20260902201504 | 70 | 0 | 0.0 | 0.0 | 0.00 | 0.00 | 0.00 | 64 | 981.3 |
| 20260902194503 | 71 | 0 | 0.0 | 0.0 | 0.00 | 0.00 | 0.00 | 61 | 981.1 |
| 20260902191457 | 73 | 22 | 0.0 | 0.0 | 0.00 | 0.00 | 0.00 | 59 | 980.8 |
| 20260902184459 | 75 | 0 | 0.0 | 0.0 | 0.00 | 0.00 | 0.00 | 54 | 980.4 |
| 20260902182833 | 79 | 0 | 0.0 | 0.0 | 0.00 | 0.00 | 0.00 | 50 | 980.1 |
| 20260902174458 | 81 | 13 | 0.0 | 4.0 | 0.00 | 0.00 | 0.00 | 48 | 979.9 |
| 20260902171458 | 82 | 0 | 0.0 | 0.0 | 0.00 | 0.00 | 0.00 | 47 | 979.9 |
| 20260902164455 | 82 | 0 | 0.0 | 1.0 | 0.00 | 0.00 | 0.00 | 46 | 979.7 |
| 20260902161454 | 83 | 59 | 0.0 | 1.0 | 0.00 | 0.00 | 0.00 | 45 | 979.8 |
| 20260902155844 | 82 | 0 | 0.0 | 0.0 | 0.00 | 0.00 | 0.00 | 46 | 979.9 |
| 20260902151453 | 83 | 27 | 0.0 | 0.0 | 0.00 | 0.00 | 0.00 | 43 | 979.8 |
| 20260902144453 | 84 | 28 | 0.0 | 0.0 | 0.00 | 0.00 | 0.00 | 43 | 979.9 |